Find Starlink 11539

NORAD ID: 62987 Int'l Des: 2025-031 Owner: SPXS Country: US Constellation: starlink operational
LEOCIRCULAR

Live Position

Loading 3D Globe...

About Starlink 11539

Description loading...

Upcoming Passes

Passes for default location (London). Set your location on the main map for personalized predictions.

Altitude History

Loading altitude history...

Two-Line Element Set

1 62987U 25031G 26106.78071778 .00111447 00000-0 85926-3 0 9994
2 62987 43.0055 131.8143 0002952 266.0332 94.0199 15.70869285 68739
Epoch: Apr 16, 2026 • Age: 18 hours

Current Status

Altitude 365.4 km
Velocity 7.69 km/s
Sub-Earth Point -38.16°S, 33.09°E
Launch Date Feb 11, 2025
Age 1.1 years
Type internet

Technical Details

Classification Payload
Mass 960.00 kg
Dry Mass 910.00 kg
Total Mass 960.00 kg
Length 0.30 m
Diameter 4.10 m
Span 29.00 m
Shape Box + pan
Manufacturer SPXS
Bus Type Starlink V2MD
Phase Status In Orbit
Owner/State SPXS/US

Most Searched